{"data":{"norad_id":65423,"intl_designator":"2025-192V","name":"STARLINK-34837","alt_names":[],"object_type":"PAYLOAD","status":"ACTIVE","operator":null,"country":"US","launch_date":"2025-08-31","launch_site_code":"AFETR","launch_vehicle":null,"mission":null,"orbit_class":"UNKNOWN","rcs_meters":null,"size_class":null,"mass_kg":null,"dimensions":null,"purposes":["comms"],"wikipedia_slug":null,"has_3d_model":false,"image_url":null,"decayed_at":null,"tle_current":{"epoch":"2026-09-20T14:00:37.059264Z","epoch_age_seconds":107697,"freshness":"FRESH","line1":"1 65423U 25192V   26263.58376226  .00016291  00000+0  53542-3 0  9997","line2":"2 65423  53.1592  45.6480 0001428  85.1522 274.9642 15.31709769 59244","mean_motion":15.31709769,"eccentricity":0.0001428,"inclination_deg":53.1592,"raan_deg":45.648,"arg_perigee_deg":85.1522,"mean_anomaly_deg":274.9642,"bstar":0.00053542,"rev_number":5924,"period_min":94.012588360008,"perigee_km":469.73285902328,"apogee_km":471.68888997624,"semimajor_km":6848.8478744998,"source":"CELESTRAK","updated_at":"2026-09-21T09:00:35.606115Z"}}}